User: anonymous   Login
Location: Skalnate Pleso
(49.1889°N, 20.2450°E)
Time: 20:30:35
(UTC+01:00)
Language:

Cosmos 1937 Rocket - Orbit

View from above orbital plane
View from above orbital plane
View from above satellite
View from above satellite

Ground track
Ground track

The orbit data is extracted from the following two-line orbital elements,

1 19039U 88029B   20023.33464814 +.00000030 +00000-0 +18460-4 0  9995
2 19039 074.0492 349.6217 0024993 285.9933 073.8468 14.38462951667185
Epoch (UTC): 23 January 2020 08:01:53
Eccentricity: 0.0024993
inclination: 74.0492°
perigee height: 746 km
apogee height: 781 km
right ascension of ascending node: 349.6217°
argument of perigee: 285.9933°
revolutions per day: 14.38462951
mean anomaly at epoch: 73.8468°
orbit number at epoch: 66718

The dashed part of the orbit path shows where the satellite is in the earth's shadow,  

DLR